CZ-4 DEB

Satellite information

Favourite Embed

Satellite Type and Status

DEBRISIN ORBIT

Key statistics

Satellite CZ-4 DEB at a glance.

Uptime

12886

Days in orbit

Revolutions

≈ 14.6

Per day

Orbit

SSO

Sun Synchronous Orbit

Inclination

98.3

Latest

Satellite identification and parameters

Extended collection of information and parameters for CZ-4 DEB.

Object identification

Identified? True

Debris? True

Object name: CZ-4 DEB

International designator: 1990-081W

Object number (NORAD): 20858

Object ID (CCSDS): 20858

Country: PEOPLES REPUBLIC OF CHINA (PRC)

Current information (Y/N): Y

RCS size: MEDIUM

Orbital parameters

Period: 98.852 minutes

Inclination: 98.2643 deg

SMA: 7081.93 km

Apoapsis: 724.137 km

Periapsis: 683.453 km

RAAN: 23.0099 deg

Eccentricy: 0.00287239

Argument of periapsis: 311.6683 deg

Mean anomaly: 161.7994 deg

Mean motion: 14.56717321 rev/day

Mean motion (dot): 0.00005245 rev/day2

B* drag term: 0.0011771792 1/REarth

Two-line elements (TLE)

Creation date: Dec. 14, 2025, 3:07 a.m.

Reference frame: TEME

Reference center: EARTH

Epoch: Dec. 13, 2025, 3:44 p.m. UTC

TLE line 0: 0 CZ-4 DEB

TLE line 1: 1 20858U 90081W 25347.65569245 .00005245 00000-0 11772-2 0 9990

TLE line 2: 2 20858 98.2643 23.0099 0028724 311.6683 161.7994 14.56717321838879

Live tracking on map

Real-time ground track for satellite CZ-4 DEB.

In-orbit conjunctions

A list of the most updated potential collisions computed for object CZ-4 DEB.

Target Orbit TCA Probability of collision Miss distance Type
SL-8 DEB LEO 2025-10-05 00:26:27 0.0001889685 119.0 (m) DEBRIS
CZ-6A DEB LEO 2025-08-17 07:34:53 0.0001162764 238.0 (m) DEBRIS
CZ-2D DEB SSO 2025-08-06 01:41:51 0.0001583113 165.0 (m) DEBRIS
FENGYUN 1C DEB SSO 2024-06-25 15:50:02 0.0001011714 107.0 (m) DEBRIS

Associated space launch

Chinese polar orbiting meteorological satellite

CZ-4 DEB was lifted into orbit during the mission ‘Long March 4A | Feng Yun 1B’, on board a Long March 4A space rocket.

The launch took place on Sept. 3, 1990, 12:53 a.m. from Launch Complex 7.

For more information about the launch, click the button.

Launch to space Long March 4A | Feng Yun 1B
Long March 4A | Feng Yun 1B

Agency: N/A

Status: Launch Successful

Launch date: Sept. 3, 1990, 12:53 a.m. UTC

Rocket: Long March 4A

Launch pad: Launch Complex 7

Location: Taiyuan Satellite Launch Center, People's Republic of China

...

Latest news about this satellite

There are no fresh news available about this satellite. Check back as we update our databases every day.


Newsletter sign-up

Weekly statistics, charts and insights to help you stay on top of the space industry.